Simultaneous Nadir Overpasses (SNOs) Predictions

Prediction of SNOs between LANDSAT-8 and METOP-B Satellite Orbit:

Table of predicted SNOs for the next 14.0 days since TLE Epoch: 6/25/2022
Index Date (LANDSAT-8) Time (LANDSAT-8) Lat,Lon (LANDSAT-8) SZA (LANDSAT-8 ) Date (METOP-B) Time (METOP-B) Lat,Lon (METOP-B) SZA (METOP-B ) Distance(km) Time Diff (sec)
1 06/26/2022 17:06:22 81.18, -35.66 60.03 06/26/2022 17:06:13 81.17, -35.62 60.02 0.90 9
2 06/26/2022 17:55:48 -81.19, 132.27 119.93 06/26/2022 17:56:53 -81.19, 132.16 119.92 2.05 65
3 06/29/2022 11:52:01 -79.68,-152.73 122.58 06/29/2022 11:50:47 -80.11,-154.41 122.34 57.65 74
4 06/29/2022 12:40:38 81.17, 30.62 60.12 06/29/2022 12:40:36 81.17, 30.58 60.11 0.68 2
5 06/29/2022 13:30:04 -81.19,-161.43 119.84 06/29/2022 13:31:16 -81.18,-161.61 119.83 3.27 72
6 07/02/2022 07:25:27 -81.15, -70.87 119.77 07/02/2022 07:24:19 -81.14, -71.06 119.82 3.23 68
7 07/02/2022 08:14:52 81.18, 97.19 60.30 07/02/2022 08:14:57 81.17, 97.12 60.30 1.20 5
8 07/05/2022 02:59:42 -81.15, -4.36 119.53 07/05/2022 02:58:41 -81.15, -4.53 119.58 2.89 61
9 07/05/2022 03:49:07 81.18, 163.67 60.53 07/05/2022 03:49:19 81.17, 163.63 60.53 0.83 12
10 07/07/2022 22:33:57 -81.15, 62.07 119.26 07/07/2022 22:33:03 -81.15, 61.97 119.29 1.68 54



Historial Predications of SNOs between LANDSAT-8 and METOP-B
